Regional Weather Roundup
Issued by NWS

Current Version | Previous Version | Text Only | Print | Product List | Glossary On
Versions: 1 2 3 4 5 6 7 8 9 10 11 12 13 14 15 16 17 18 19 20 21 22 23 24 25 26 27 28 29 30 31 32 33 34 35 36 37 38 39 40 41 42 43 44 45 46 47 48 49 50
000
ASUS42 KKEY 211210
RWRKEY

FLORIDA REGIONAL WEATHER ROUNDUP FOR THE FLORIDA KEYS
NATIONAL WEATHER SERVICE KEY WEST FLORIDA
700 AM EST SUN DEC 21 2014

...SOUTH FLORIDA AND THE KEYS...

CITY           SKY/WX    TMP DP  RH WIND       PRES   REMARKS
FORT MYERS     PTCLDY    62  61  96 CALM      30.06R
SW REGIONAL AP PTCLDY    60  59  96 E3        30.07R
NAPLES         PTCLDY    63  62  97 E6        30.06R
MIAMI          MOCLDY    66  63  90 CALM      30.08R
WEST KENDALL   PTCLDY   N/A N/A N/A CALM      30.09R
HOMESTEAD      PTCLDY    62  59  93 NW2       30.09R
MARATHON       MOCLDY    74  69  85 E3        30.06R
BOCA CHICA NAS CLOUDY    73  69  87 E7        30.05S
KEY WEST INTL  CLOUDY    75  69  81 SE8       30.06R

...INTERNATIONAL WEATHER...

CITY           SKY/WX    TMP DP  RH WIND       PRES   REMARKS
NASSAU BAHAMAS PTCLDY    63  61  94 CALM      30.07R
CANCUN MEXICO  CLOUDY    73  72  94 SW6       29.97R
COZUMEL MEXICO PTCLDY    70  70 100 CALM      29.97R

ADJACENT COASTAL WATERS...

STATION/POSITION TIME  SKY/WX   TEMP    WIND        PRES    WAVE
                                AIR SEA DIR/SP/G            HT/PER
                 (UTC)          (F)     (DEG/KT/KT) (MB)    (FT/S)
PULASKI SHOAL LI 1056            73     100/  9/ 10 1016.8R
SAND KEY         1141            76     120/ 12/ 13 1017.5R
SOMBRERO KEY     1200            76     130/ 11/ 12 1018.7R
LONG KEY         1200            73 70  120/  5/  5 1018.9R
MOLASSES REEF    1200            75 76  120/ 10/ 11 1018.4R
FOWEY ROCKS      NOT AVBL
Buoy 42080       NOT AVBL

$$



USA.gov is the U.S. government's official web portal to all federal, state and local government web resources and services.